Time,TemperatureF,DewpointF,PressureIn,WindDirection,WindDirectionDegrees,WindSpeedMPH,WindSpeedGustMPH,Humidity,HourlyPrecipIn,Conditions,Clouds,dailyrainin,SoftwareType,DateUTC
2013-06-22 11:02:00,73.0,62.0,30.28,WNW,287,0.0,0.0,69,0.00,,,0.00,,2013-06-22 15:02:00,
2013-06-22 11:12:00,73.0,62.0,30.28,WNW,287,0.0,0.0,69,0.00,,,0.00,,2013-06-22 15:12:00,
2013-06-22 11:22:00,73.0,62.0,30.28,WNW,287,0.0,0.0,69,0.00,,,0.00,,2013-06-22 15:22:00,
2013-06-22 11:34:00,75.0,62.0,30.27,SSW,208,0.0,0.0,63,0.00,,,0.00,,2013-06-22 15:34:00,
2013-06-22 11:43:00,75.0,62.0,30.27,SSW,208,0.0,0.0,63,0.00,,,0.00,,2013-06-22 15:43:00,
2013-06-22 11:53:00,75.0,62.0,30.27,SSW,208,0.0,0.0,63,0.00,,,0.00,,2013-06-22 15:53:00,
2013-06-22 12:02:00,77.0,62.0,30.26,SSW,208,0.0,0.0,60,0.00,,,0.00,,2013-06-22 16:02:00,
2013-06-22 12:12:00,77.0,62.0,30.26,SSW,208,0.0,0.0,60,0.00,,,0.00,,2013-06-22 16:12:00,
2013-06-22 12:22:00,77.0,62.0,30.26,SSW,208,0.0,0.0,60,0.00,,,0.00,,2013-06-22 16:22:00,
2013-06-22 12:34:00,79.0,60.0,30.26,North,360,0.0,0.0,53,0.00,,,0.00,,2013-06-22 16:34:00,
2013-06-22 12:43:00,79.0,60.0,30.26,North,360,0.0,0.0,53,0.00,,,0.00,,2013-06-22 16:43:00,
2013-06-22 12:52:00,79.0,60.0,30.26,North,360,0.0,0.0,53,0.00,,,0.00,,2013-06-22 16:52:00,
2013-06-22 13:02:00,80.0,60.0,30.25,North,357,0.0,0.0,51,0.00,,,0.00,,2013-06-22 17:02:00,
2013-06-22 13:11:00,80.0,60.0,30.25,North,357,0.0,0.0,51,0.00,,,0.00,,2013-06-22 17:11:00,
2013-06-22 13:22:00,80.0,60.0,30.25,North,357,0.0,0.0,51,0.00,,,0.00,,2013-06-22 17:22:00,
2013-06-22 13:34:00,82.0,62.0,30.25,North,359,0.0,0.0,51,0.00,,,0.00,,2013-06-22 17:34:00,
2013-06-22 13:43:00,82.0,62.0,30.25,North,359,0.0,0.0,51,0.00,,,0.00,,2013-06-22 17:43:00,
2013-06-22 13:52:00,82.0,62.0,30.25,North,359,0.0,0.0,51,0.00,,,0.00,,2013-06-22 17:52:00,
2013-06-22 14:12:00,84.0,62.0,30.24,NNW,339,0.0,0.0,48,0.00,,,0.00,,2013-06-22 18:12:00,
2013-06-22 14:23:00,84.0,62.0,30.24,NNW,339,0.0,0.0,48,0.00,,,0.00,,2013-06-22 18:23:00,
2013-06-22 14:43:00,84.0,60.0,30.23,NW,312,0.0,0.0,45,0.00,,,0.00,,2013-06-22 18:43:00,
2013-06-22 14:52:00,84.0,60.0,30.23,NW,312,0.0,0.0,45,0.00,,,0.00,,2013-06-22 18:52:00,
2013-06-22 15:33:00,85.0,61.0,30.21,WSW,258,0.0,0.0,44,0.00,,,0.00,,2013-06-22 19:33:00,
2013-06-22 15:43:00,85.0,61.0,30.21,WSW,258,0.0,0.0,44,0.00,,,0.00,,2013-06-22 19:43:00,
2013-06-22 15:53:00,85.0,61.0,30.21,WSW,258,0.0,0.0,44,0.00,,,0.00,,2013-06-22 19:53:00,
2013-06-22 16:02:00,84.0,60.0,30.20,WSW,258,0.0,0.0,45,0.00,,,0.00,,2013-06-22 20:02:00,
2013-06-22 16:11:00,84.0,60.0,30.20,WSW,258,0.0,0.0,45,0.00,,,0.00,,2013-06-22 20:11:00,
2013-06-22 16:22:00,84.0,60.0,30.20,WSW,258,0.0,0.0,45,0.00,,,0.00,,2013-06-22 20:22:00,
2013-06-22 16:33:00,81.0,59.0,30.19,West,274,0.0,0.0,47,0.00,,,0.00,,2013-06-22 20:33:00,
2013-06-22 16:43:00,81.0,59.0,30.19,West,274,0.0,0.0,47,0.00,,,0.00,,2013-06-22 20:43:00,
2013-06-22 16:53:00,81.0,59.0,30.19,West,274,0.0,0.0,47,0.00,,,0.00,,2013-06-22 20:53:00,
2013-06-22 17:01:00,79.0,55.0,30.15,West,274,0.0,0.0,43,0.00,,,0.00,,2013-06-22 21:01:00,
2013-06-22 17:11:00,79.0,55.0,30.15,West,274,0.0,0.0,43,0.00,,,0.00,,2013-06-22 21:11:00,
2013-06-22 17:22:00,79.0,55.0,30.15,West,274,0.0,0.0,43,0.00,,,0.00,,2013-06-22 21:22:00,
2013-06-22 17:34:00,79.0,56.0,30.15,West,274,0.0,0.0,46,0.00,,,0.00,,2013-06-22 21:34:00,
2013-06-22 17:43:00,79.0,56.0,30.15,West,274,0.0,0.0,46,0.00,,,0.00,,2013-06-22 21:43:00,
2013-06-22 17:53:00,79.0,56.0,30.15,West,274,0.0,0.0,46,0.00,,,0.00,,2013-06-22 21:53:00,
2013-06-22 18:02:00,78.0,57.0,30.14,West,274,0.0,0.0,49,0.00,,,0.00,,2013-06-22 22:02:00,
2013-06-22 18:12:00,78.0,57.0,30.14,West,274,0.0,0.0,49,0.00,,,0.00,,2013-06-22 22:12:00,
2013-06-22 18:23:00,78.0,57.0,30.14,West,274,0.0,0.0,49,0.00,,,0.00,,2013-06-22 22:23:00,
2013-06-22 18:33:00,77.0,58.0,30.14,West,274,0.0,0.0,52,0.00,,,0.00,,2013-06-22 22:33:00,
2013-06-22 18:43:00,77.0,58.0,30.14,West,274,0.0,0.0,52,0.00,,,0.00,,2013-06-22 22:43:00,
2013-06-22 18:52:00,77.0,58.0,30.14,West,274,0.0,0.0,52,0.00,,,0.00,,2013-06-22 22:52:00,
2013-06-22 19:01:00,76.0,62.0,30.15,West,274,0.0,0.0,61,0.00,,,0.00,,2013-06-22 23:01:00,
2013-06-22 19:11:00,76.0,62.0,30.15,West,274,0.0,0.0,61,0.00,,,0.00,,2013-06-22 23:11:00,
2013-06-22 19:22:00,76.0,62.0,30.15,West,274,0.0,0.0,61,0.00,,,0.00,,2013-06-22 23:22:00,
2013-06-22 19:34:00,75.0,62.0,30.15,ESE,103,0.0,0.0,65,0.00,,,0.00,,2013-06-22 23:34:00,
2013-06-22 19:43:00,75.0,62.0,30.15,ESE,103,0.0,0.0,65,0.00,,,0.00,,2013-06-22 23:43:00,
2013-06-22 19:53:00,75.0,62.0,30.15,ESE,103,0.0,0.0,65,0.00,,,0.00,,2013-06-22 23:53:00,
2013-06-22 20:01:00,73.0,62.0,30.16,ESE,103,0.0,0.0,68,0.00,,,0.00,,2013-06-23 00:01:00,
2013-06-22 20:11:00,73.0,62.0,30.16,ESE,103,0.0,0.0,68,0.00,,,0.00,,2013-06-23 00:11:00,
2013-06-22 20:22:00,73.0,62.0,30.16,ESE,103,0.0,0.0,68,0.00,,,0.00,,2013-06-23 00:22:00,
2013-06-22 20:33:00,72.0,62.0,30.15,ESE,103,0.0,0.0,70,0.00,,,0.00,,2013-06-23 00:33:00,
2013-06-22 20:42:00,72.0,62.0,30.15,ESE,103,0.0,0.0,70,0.00,,,0.00,,2013-06-23 00:42:00,
2013-06-22 20:53:00,72.0,62.0,30.15,ESE,103,0.0,0.0,70,0.00,,,0.00,,2013-06-23 00:53:00,
2013-06-22 21:01:00,72.0,62.0,30.15,ESE,103,0.0,0.0,70,0.00,,,0.00,,2013-06-23 01:01:00,
2013-06-22 21:11:00,72.0,62.0,30.15,ESE,103,0.0,0.0,70,0.00,,,0.00,,2013-06-23 01:11:00,